Location: Desert Center
(33.7130°N, 115.4010°W)
Time: 11:16:59
(UTC-08:00)

Hubble Space Telescope - Visible Passes

Search period start: 07 December 2021 00:00
Search period end: 17 December 2021 00:00
Orbit: 534 x 538 km, 28.5° (Epoch: 06 December)

Date Brightness Start Highest point End Pass type
(mag) Time Alt. Az. Time Alt. Az. Time Alt. Az.
12 Dec 3.5 18:58:17 10° SSW 18:58:53 12° SSW 18:58:53 12° SSW visible
13 Dec 3.0 18:46:42 10° SSW 18:48:26 18° S 18:48:26 18° S visible
14 Dec 2.5 18:35:14 10° SW 18:37:57 23° S 18:37:57 23° S visible
15 Dec 2.1 18:23:50 10° SW 18:27:22 28° SSE 18:27:27 28° SSE visible
16 Dec 1.9 18:12:28 10° SW 18:16:09 31° S 18:16:56 29° SE visible
